This is the latest recevied weather packets stored in our database for station/object AI9F. If no packets are shown the sender has not sent any weather packets the latest 10 day(s).
| Time | Temp. | Humidity | Pressure | Rain* | Wind** | Luminosity | Snow |
|---|---|---|---|---|---|---|---|
| 1777757276 | 14.44° C | 44% | 1018.6 hPa | 0 mm | - | 517 W/m² | - |
| 1777756974 | 15° C | 44% | 1018.4 hPa | 0 mm | - | 142 W/m² | - |
| 1777756669 | 15° C | 44% | 1018.6 hPa | 0 mm | - | 518 W/m² | - |
| 1777756366 | 14.44° C | 48% | 1018.5 hPa | 0 mm | - | 382 W/m² | - |
| 1777756064 | 14.44° C | 46% | 1018.4 hPa | 0 mm | - | 120 W/m² | - |
| 1777755761 | 15° C | 43% | 1018.5 hPa | 0 mm | - | 119 W/m² | - |
| 1777755458 | 14.44° C | 50% | 1018.7 hPa | 0 mm | - | 692 W/m² | - |
| 1777755154 | 15.56° C | 44% | 1018.6 hPa | 0 mm | - | 225 W/m² | - |
| 1777754851 | 15.56° C | 43% | 1018.5 hPa | 0 mm | - | 443 W/m² | - |
| 1777754549 | 15.56° C | 47% | 1018.5 hPa | 0 mm | - | 676 W/m² | - |
| 1777754246 | 16.11° C | 43% | 1018.8 hPa | 0 mm | - | 642 W/m² | - |
| 1777753945 | 16.11° C | 45% | 1018.6 hPa | 0 mm | - | 679 W/m² | - |
| 1777753644 | 15.56° C | 40% | 1018.8 hPa | 0 mm | - | 666 W/m² | - |
| 1777753342 | 15.56° C | 49% | 1018.8 hPa | 0 mm | - | 682 W/m² | - |
| 1777753040 | 15° C | 45% | 1018.9 hPa | 0 mm | - | 494 W/m² | - |
| 1777752736 | 14.44° C | 46% | 1018.7 hPa | 0 mm | - | 324 W/m² | - |
| 1777752432 | 14.44° C | 51% | 1018.9 hPa | 0 mm | - | 310 W/m² | - |
| 1777752128 | 14.44° C | 47% | 1019 hPa | 0 mm | - | 301 W/m² | - |
| 1777751827 | 12.78° C | 53% | 1019.1 hPa | 0 mm | - | 599 W/m² | - |
| 1777751523 | 13.33° C | 49% | 1018.8 hPa | 0 mm | - | 194 W/m² | - |
| 1777751220 | 13.89° C | 45% | 1019 hPa | 0 mm | - | 170 W/m² | - |
| 1777750916 | 14.44° C | 50% | 1019 hPa | 0 mm | - | 185 W/m² | - |
| 1777750613 | 15.56° C | 49% | 1018.9 hPa | 0 mm | - | 272 W/m² | - |
| 1777750310 | 14.44° C | 50% | 1019 hPa | 0 mm | - | 897 W/m² | - |
| 1777750005 | 14.44° C | 47% | 1019 hPa | 0 mm | - | 349 W/m² | - |
* Rain latest hour (hover to see other rain measurements)
** Current wind speed in m/s (hover to see current wind gust speed)